TimeEST,TemperatureF,Dew PointF,Humidity,Sea Level PressureIn,VisibilityMPH,Wind Direction,Wind SpeedMPH,Gust SpeedMPH,PrecipitationIn,Events,Conditions,WindDirDegrees,DateUTC
12:53 AM,61.0,59.0,93,30.06,9.0,ENE,4.6,-,N/A,,Clear,70,2013-02-22 05:53:00
1:53 AM,61.0,59.0,93,30.05,8.0,East,3.5,-,N/A,,Clear,100,2013-02-22 06:53:00
2:36 AM,59.0,57.2,94,30.04,1.5,Calm,Calm,-,N/A,,Clear,0,2013-02-22 07:36:00
2:46 AM,59.0,57.2,94,30.04,0.5,Calm,Calm,-,N/A,Fog,Fog,0,2013-02-22 07:46:00
2:53 AM,59.0,57.9,96,30.04,0.5,Calm,Calm,-,N/A,Fog,Fog,0,2013-02-22 07:53:00
3:53 AM,57.0,57.0,100,30.05,0.5,ENE,3.5,-,N/A,Fog,Fog,70,2013-02-22 08:53:00
4:53 AM,57.0,55.9,96,30.05,0.2,Calm,Calm,-,N/A,Fog,Fog,0,2013-02-22 09:53:00
5:48 AM,57.2,57.2,100,30.07,0.2,NNE,4.6,-,N/A,Fog,Fog,30,2013-02-22 10:48:00
5:53 AM,57.0,57.0,100,30.08,0.2,NNE,3.5,-,N/A,Fog,Fog,30,2013-02-22 10:53:00
6:08 AM,57.2,55.4,94,30.08,0.2,NE,3.5,-,N/A,Fog,Fog,50,2013-02-22 11:08:00
6:28 AM,57.2,55.4,94,30.08,0.2,Calm,Calm,-,N/A,Fog,Fog,0,2013-02-22 11:28:00
6:53 AM,57.9,57.0,97,30.09,0.5,Calm,Calm,-,N/A,Fog,Fog,0,2013-02-22 11:53:00
7:13 AM,59.0,57.2,94,30.09,0.5,East,3.5,-,N/A,Fog,Fog,100,2013-02-22 12:13:00
7:28 AM,60.8,59.0,94,30.09,1.8,ESE,3.5,-,N/A,,Mostly Cloudy,110,2013-02-22 12:28:00
7:33 AM,60.8,60.8,100,30.09,3.0,ESE,3.5,-,N/A,,Mostly Cloudy,120,2013-02-22 12:33:00
7:53 AM,63.0,62.1,97,30.10,5.0,ESE,4.6,-,N/A,,Mostly Cloudy,120,2013-02-22 12:53:00
8:00 AM,64.4,62.6,94,30.10,6.0,ESE,5.8,-,N/A,,Clear,120,2013-02-22 13:00:00
8:53 AM,72.0,68.0,87,30.12,10.0,SE,8.1,-,0.01,,Clear,140,2013-02-22 13:53:00
9:53 AM,78.1,69.1,74,30.11,10.0,South,13.8,-,N/A,,Scattered Clouds,170,2013-02-22 14:53:00
10:08 AM,78.8,68.0,69,30.10,10.0,SSE,12.7,-,N/A,,Mostly Cloudy,150,2013-02-22 15:08:00
10:53 AM,81.0,66.9,62,30.11,10.0,South,11.5,-,N/A,,Partly Cloudy,170,2013-02-22 15:53:00
12:53 PM,84.9,63.0,48,30.07,10.0,Variable,6.9,-,N/A,,Scattered Clouds,0,2013-02-22 17:53:00
1:53 PM,84.9,66.9,55,30.05,10.0,WSW,12.7,-,N/A,,Scattered Clouds,250,2013-02-22 18:53:00
2:53 PM,86.0,66.0,51,30.03,10.0,SW,15.0,-,N/A,,Mostly Cloudy,220,2013-02-22 19:53:00
3:53 PM,84.0,63.0,49,30.02,10.0,WSW,17.3,-,N/A,,Clear,250,2013-02-22 20:53:00
4:53 PM,81.0,64.9,58,30.02,10.0,WSW,15.0,-,N/A,,Clear,240,2013-02-22 21:53:00
5:53 PM,79.0,66.0,64,30.04,10.0,SW,9.2,-,N/A,,Clear,230,2013-02-22 22:53:00
6:53 PM,75.0,66.9,76,30.05,10.0,SW,5.8,-,N/A,,Clear,230,2013-02-22 23:53:00
7:53 PM,73.9,66.9,79,30.06,10.0,SW,9.2,-,N/A,,Partly Cloudy,220,2013-02-23 00:53:00
8:53 PM,73.9,68.0,82,30.08,10.0,SSW,6.9,-,N/A,,Overcast,210,2013-02-23 01:53:00
9:53 PM,73.0,68.0,84,30.08,10.0,SSW,8.1,-,N/A,,Mostly Cloudy,210,2013-02-23 02:53:00
10:53 PM,69.1,66.0,90,30.08,10.0,South,4.6,-,N/A,,Clear,170,2013-02-23 03:53:00
11:45 PM,64.4,64.4,100,30.07,1.5,Calm,Calm,-,N/A,,Partly Cloudy,0,2013-02-23 04:45:00
11:53 PM,66.0,64.0,93,30.06,1.5,ESE,3.5,-,N/A,,Partly Cloudy,110,2013-02-23 04:53:00
11:55 PM,66.2,64.4,94,30.06,3.0,ESE,3.5,-,N/A,,Clear,120,2013-02-23 04:55:00